TAM3408 SBGR-SBNF

Flight info

Callsign TAM3408
Flight time 0h 52m
Altitude 32000
Route MADNI UZ92 PUBIS
Aircraft A319/M-SDE2FGHIM1RWXYZ/S

Departure

Time 2026-05-06 21:57
Airport São Paulo/Guarulhos–Governor André Franco Montoro International Airport (SBGR)

Arrival

Time 2026-05-06 22:49
Airport Ministro Victor Konder International Airport (SBNF)
Time Latitude Longitude Altitude Speed Heading
2026-05-06 21:43 -23.42745 -46.48067 2465 ft 0 kts 84°
2026-05-06 21:48 -23.42745 -46.48074 2465 ft 3 kts 84°
2026-05-06 21:48 -23.42747 -46.48096 2465 ft 3 kts 85°
2026-05-06 21:48 -23.42749 -46.48119 2465 ft 3 kts 91°
2026-05-06 21:49 -23.42746 -46.48140 2468 ft 3 kts 116°
2026-05-06 21:49 -23.42739 -46.48152 2471 ft 0 kts 147°
2026-05-06 21:49 -23.42756 -46.48143 2465 ft 3 kts 157°
2026-05-06 21:49 -23.42775 -46.48137 2465 ft 2 kts 168°
2026-05-06 21:50 -23.42795 -46.48134 2468 ft 2 kts 174°
2026-05-06 21:50 -23.42796 -46.48134 2465 ft 0 kts 174°
2026-05-06 21:52 -23.42814 -46.48132 2465 ft 5 kts 174°
2026-05-06 21:52 -23.42845 -46.48129 2465 ft 6 kts 174°
2026-05-06 21:52 -23.42907 -46.48128 2465 ft 12 kts 193°
2026-05-06 21:53 -23.43007 -46.48136 2467 ft 18 kts 175°
2026-05-06 21:53 -23.43122 -46.48159 2467 ft 18 kts 238°
2026-05-06 21:53 -23.43160 -46.48299 2468 ft 20 kts 253°
2026-05-06 21:53 -23.43232 -46.48388 2473 ft 18 kts 163°
2026-05-06 21:54 -23.43294 -46.48366 2469 ft 0 kts 163°
2026-05-06 21:55 -23.43320 -46.48358 2466 ft 10 kts 165°
2026-05-06 21:56 -23.43410 -46.48320 2462 ft 15 kts 128°
2026-05-06 21:56 -23.43407 -46.48256 2461 ft 0 kts 74°
2026-05-06 21:56 -23.43379 -46.48149 2464 ft 44 kts 74°
2026-05-06 21:56 -23.43231 -46.47603 2459 ft 105 kts 73°
2026-05-06 21:57 -23.42974 -46.46658 2468 ft 154 kts 73°
2026-05-06 21:57 -23.42644 -46.45455 2760 ft 169 kts 73°
2026-05-06 21:57 -23.42303 -46.44225 3321 ft 172 kts 73°
2026-05-06 21:57 -23.41939 -46.42978 3868 ft 172 kts 72°
2026-05-06 21:58 -23.41550 -46.41686 4097 ft 188 kts 72°
2026-05-06 21:58 -23.41156 -46.40326 4257 ft 210 kts 72°
2026-05-06 21:58 -23.40690 -46.38721 4460 ft 235 kts 72°
2026-05-06 21:58 -23.40218 -46.36919 4820 ft 260 kts 81°
2026-05-06 21:59 -23.40381 -46.34917 5418 ft 273 kts 107°
2026-05-06 21:59 -23.41001 -46.32992 6277 ft 277 kts 109°
2026-05-06 21:59 -23.41653 -46.31009 7142 ft 280 kts 109°
2026-05-06 21:59 -23.42305 -46.29027 7941 ft 284 kts 109°
2026-05-06 22:00 -23.43025 -46.27011 8681 ft 290 kts 117°
2026-05-06 22:00 -23.44383 -46.25400 8935 ft 293 kts 149°
2026-05-06 22:00 -23.46345 -46.24849 9375 ft 298 kts 182°
2026-05-06 22:00 -23.48400 -46.25162 10160 ft 300 kts 190°
2026-05-06 22:01 -23.50514 -46.25620 10464 ft 321 kts 192°
2026-05-06 22:01 -23.52653 -46.26499 10874 ft 335 kts 210°
2026-05-06 22:01 -23.54529 -46.28031 11526 ft 340 kts 225°
2026-05-06 22:01 -23.56012 -46.30096 12241 ft 344 kts 240°
2026-05-06 22:02 -23.56901 -46.32516 12951 ft 347 kts 256°
2026-05-06 22:02 -23.57421 -46.35059 13640 ft 350 kts 258°
2026-05-06 22:02 -23.57800 -46.36963 14130 ft 352 kts 258°
2026-05-06 22:02 -23.58288 -46.39439 14730 ft 355 kts 258°
2026-05-06 22:03 -23.58808 -46.42083 15354 ft 359 kts 257°
2026-05-06 22:03 -23.59333 -46.44753 15962 ft 361 kts 257°
2026-05-06 22:03 -23.59864 -46.47438 16176 ft 363 kts 257°
2026-05-06 22:03 -23.60394 -46.50126 16214 ft 362 kts 257°
2026-05-06 22:04 -23.60913 -46.52815 16292 ft 365 kts 258°
2026-05-06 22:04 -23.61364 -46.55544 16866 ft 367 kts 260°
2026-05-06 22:04 -23.61762 -46.58262 17453 ft 370 kts 260°
2026-05-06 22:04 -23.62159 -46.61118 18053 ft 372 kts 261°
2026-05-06 22:05 -23.62608 -46.63907 18616 ft 375 kts 255°
2026-05-06 22:05 -23.63503 -46.66618 19194 ft 376 kts 243°
2026-05-06 22:05 -23.64748 -46.68938 19714 ft 378 kts 236°
2026-05-06 22:05 -23.66126 -46.71290 20266 ft 381 kts 236°
2026-05-06 22:06 -23.67551 -46.73736 20818 ft 384 kts 237°
2026-05-06 22:06 -23.69089 -46.76123 21350 ft 386 kts 228°
2026-05-06 22:06 -23.71043 -46.78128 21850 ft 387 kts 216°
2026-05-06 22:06 -23.73359 -46.79636 22361 ft 389 kts 204°
2026-05-06 22:07 -23.75929 -46.80580 22849 ft 392 kts 193°
2026-05-06 22:07 -23.78600 -46.81215 23342 ft 394 kts 192°
2026-05-06 22:07 -23.81290 -46.81856 23821 ft 397 kts 192°
2026-05-06 22:07 -23.83859 -46.82470 24265 ft 400 kts 192°
2026-05-06 22:08 -23.86592 -46.83121 24716 ft 402 kts 192°
2026-05-06 22:08 -23.89334 -46.83774 25169 ft 404 kts 192°
2026-05-06 22:08 -23.91814 -46.84366 25571 ft 406 kts 192°
2026-05-06 22:08 -23.94609 -46.85036 26001 ft 408 kts 192°
2026-05-06 22:09 -23.97391 -46.85700 26435 ft 410 kts 193°
2026-05-06 22:09 -24.00187 -46.86364 26862 ft 412 kts 192°
2026-05-06 22:09 -24.02960 -46.87023 27258 ft 414 kts 193°
2026-05-06 22:09 -24.05745 -46.87687 27660 ft 416 kts 193°
2026-05-06 22:10 -24.08578 -46.88364 28053 ft 418 kts 193°
2026-05-06 22:10 -24.11425 -46.89046 28445 ft 420 kts 193°
2026-05-06 22:10 -24.14284 -46.89732 28822 ft 422 kts 193°
2026-05-06 22:10 -24.17158 -46.90421 29189 ft 424 kts 193°
2026-05-06 22:11 -24.20046 -46.91113 29559 ft 426 kts 193°
2026-05-06 22:11 -24.22947 -46.91808 29911 ft 428 kts 193°
2026-05-06 22:11 -24.25858 -46.92507 30261 ft 429 kts 193°
2026-05-06 22:11 -24.28743 -46.93201 30593 ft 431 kts 193°
2026-05-06 22:12 -24.31676 -46.93908 30925 ft 432 kts 193°
2026-05-06 22:12 -24.34620 -46.94616 31250 ft 434 kts 193°
2026-05-06 22:12 -24.37569 -46.95324 31561 ft 435 kts 193°
2026-05-06 22:12 -24.40534 -46.96034 31870 ft 436 kts 193°
2026-05-06 22:13 -24.43499 -46.96743 32131 ft 436 kts 193°
2026-05-06 22:13 -24.46419 -46.97443 32153 ft 423 kts 193°
2026-05-06 22:13 -24.49246 -46.98121 32135 ft 410 kts 193°
2026-05-06 22:13 -24.51966 -46.98772 32135 ft 403 kts 193°
2026-05-06 22:14 -24.57410 -47.00086 32139 ft 399 kts 193°
2026-05-06 22:14 -24.62569 -47.02206 32136 ft 397 kts 211°
2026-05-06 22:15 -24.67209 -47.05500 32135 ft 397 kts 213°
2026-05-06 22:15 -24.71823 -47.08761 32134 ft 397 kts 212°
2026-05-06 22:16 -24.76458 -47.12043 32135 ft 396 kts 213°
2026-05-06 22:16 -24.81090 -47.15327 32133 ft 396 kts 213°
2026-05-06 22:17 -24.85719 -47.18611 32129 ft 396 kts 213°
2026-05-06 22:17 -24.90343 -47.21904 32129 ft 396 kts 213°
2026-05-06 22:18 -24.94931 -47.25172 32129 ft 395 kts 213°
2026-05-06 22:18 -24.99545 -47.28461 32132 ft 395 kts 213°
2026-05-06 22:19 -25.04162 -47.31744 32122 ft 395 kts 213°
2026-05-06 22:19 -25.08775 -47.35036 32101 ft 395 kts 213°
2026-05-06 22:20 -25.13352 -47.38318 32093 ft 395 kts 213°
2026-05-06 22:20 -25.17964 -47.41624 32092 ft 395 kts 213°
2026-05-06 22:21 -25.22579 -47.44921 32091 ft 395 kts 213°
2026-05-06 22:21 -25.27188 -47.48225 32092 ft 395 kts 213°
2026-05-06 22:22 -25.31761 -47.51512 32093 ft 396 kts 213°
2026-05-06 22:22 -25.36477 -47.54905 32111 ft 414 kts 213°
2026-05-06 22:23 -25.41399 -47.58442 32100 ft 427 kts 213°
2026-05-06 22:23 -25.46390 -47.62032 32121 ft 429 kts 213°
2026-05-06 22:24 -25.51330 -47.65569 32136 ft 416 kts 213°
2026-05-06 22:24 -25.53715 -47.67288 32133 ft 403 kts 213°
2026-05-06 22:24 -25.56039 -47.68973 32138 ft 397 kts 213°
2026-05-06 22:25 -25.60611 -47.72296 31889 ft 391 kts 213°
2026-05-06 22:25 -25.62878 -47.73942 31638 ft 389 kts 213°
2026-05-06 22:25 -25.65138 -47.75577 31387 ft 387 kts 213°
2026-05-06 22:26 -25.67391 -47.77206 31137 ft 386 kts 213°
2026-05-06 22:26 -25.69618 -47.78818 30844 ft 380 kts 213°
2026-05-06 22:26 -25.71792 -47.80391 30460 ft 377 kts 213°
2026-05-06 22:26 -25.73982 -47.81972 30062 ft 374 kts 213°
2026-05-06 22:27 -25.76152 -47.83544 29680 ft 371 kts 213°
2026-05-06 22:27 -25.78308 -47.85105 29303 ft 369 kts 213°
2026-05-06 22:27 -25.80448 -47.86654 28931 ft 366 kts 213°
2026-05-06 22:27 -25.82575 -47.88194 28571 ft 364 kts 213°
2026-05-06 22:28 -25.84687 -47.89728 28213 ft 361 kts 213°
2026-05-06 22:28 -25.86752 -47.91230 27848 ft 359 kts 213°
2026-05-06 22:28 -25.88832 -47.92741 27492 ft 356 kts 213°
2026-05-06 22:28 -25.90892 -47.94237 27137 ft 352 kts 213°
2026-05-06 22:29 -25.92936 -47.95719 26781 ft 349 kts 213°
2026-05-06 22:29 -25.94958 -47.97189 26415 ft 345 kts 213°
2026-05-06 22:29 -25.96957 -47.98642 26078 ft 342 kts 213°
2026-05-06 22:29 -25.98941 -48.00091 25712 ft 340 kts 213°
2026-05-06 22:30 -26.00908 -48.01531 25349 ft 337 kts 213°
2026-05-06 22:30 -26.02827 -48.02954 24988 ft 334 kts 216°
2026-05-06 22:30 -26.04576 -48.04637 24580 ft 332 kts 224°
2026-05-06 22:30 -26.06240 -48.06412 24191 ft 330 kts 224°
2026-05-06 22:31 -26.07898 -48.08174 23800 ft 329 kts 224°
2026-05-06 22:31 -26.09546 -48.09926 23404 ft 327 kts 224°
2026-05-06 22:31 -26.11190 -48.11670 23009 ft 326 kts 224°
2026-05-06 22:31 -26.12825 -48.13406 22612 ft 324 kts 224°
2026-05-06 22:32 -26.14454 -48.15135 22216 ft 323 kts 224°
2026-05-06 22:32 -26.16076 -48.16857 21815 ft 322 kts 224°
2026-05-06 22:32 -26.17679 -48.18542 21426 ft 321 kts 221°
2026-05-06 22:32 -26.19488 -48.19983 21032 ft 320 kts 212°
2026-05-06 22:33 -26.21373 -48.21290 20637 ft 319 kts 212°
2026-05-06 22:33 -26.23248 -48.22599 20242 ft 318 kts 212°
2026-05-06 22:33 -26.25118 -48.23908 19833 ft 317 kts 212°
2026-05-06 22:33 -26.26984 -48.25215 19428 ft 317 kts 212°
2026-05-06 22:34 -26.28843 -48.26517 19035 ft 315 kts 212°
2026-05-06 22:34 -26.30697 -48.27817 18643 ft 314 kts 212°
2026-05-06 22:34 -26.32547 -48.29109 18251 ft 313 kts 212°
2026-05-06 22:34 -26.34367 -48.30378 17865 ft 312 kts 212°
2026-05-06 22:35 -26.36203 -48.31662 17477 ft 311 kts 212°
2026-05-06 22:35 -26.38034 -48.32944 17095 ft 310 kts 212°
2026-05-06 22:35 -26.39860 -48.34222 16707 ft 309 kts 212°
2026-05-06 22:35 -26.41681 -48.35496 16329 ft 308 kts 212°
2026-05-06 22:36 -26.43491 -48.36768 15950 ft 307 kts 212°
2026-05-06 22:36 -26.45297 -48.38036 15576 ft 306 kts 212°
2026-05-06 22:36 -26.47098 -48.39299 15203 ft 305 kts 212°
2026-05-06 22:36 -26.48892 -48.40557 14831 ft 304 kts 212°
2026-05-06 22:37 -26.50658 -48.41795 14464 ft 303 kts 212°
2026-05-06 22:37 -26.52439 -48.43046 14085 ft 302 kts 213°
2026-05-06 22:37 -26.54215 -48.44294 13730 ft 301 kts 212°
2026-05-06 22:37 -26.55982 -48.45534 13367 ft 299 kts 212°
2026-05-06 22:38 -26.57742 -48.46769 13002 ft 298 kts 213°
2026-05-06 22:38 -26.59495 -48.48001 12640 ft 297 kts 212°
2026-05-06 22:38 -26.61244 -48.49230 12280 ft 297 kts 213°
2026-05-06 22:38 -26.62985 -48.50459 11921 ft 296 kts 213°
2026-05-06 22:39 -26.64700 -48.51667 11569 ft 295 kts 213°
2026-05-06 22:39 -26.66431 -48.52884 11212 ft 294 kts 213°
2026-05-06 22:39 -26.68158 -48.54099 10860 ft 293 kts 213°
2026-05-06 22:39 -26.69758 -48.55488 10506 ft 291 kts 225°
2026-05-06 22:40 -26.71028 -48.57236 10155 ft 289 kts 236°
2026-05-06 22:40 -26.72155 -48.59092 9814 ft 288 kts 236°
2026-05-06 22:40 -26.73278 -48.60939 9469 ft 287 kts 236°
2026-05-06 22:40 -26.74398 -48.62776 9123 ft 285 kts 236°
2026-05-06 22:41 -26.76629 -48.66423 8373 ft 285 kts 236°
2026-05-06 22:41 -26.77748 -48.68253 8028 ft 284 kts 236°
2026-05-06 22:41 -26.78861 -48.70073 7684 ft 283 kts 236°
2026-05-06 22:42 -26.79967 -48.71886 7347 ft 281 kts 236°
2026-05-06 22:42 -26.81066 -48.73690 7013 ft 279 kts 236°
2026-05-06 22:42 -26.82166 -48.75494 6681 ft 282 kts 236°
2026-05-06 22:42 -26.83271 -48.77306 6348 ft 282 kts 236°
2026-05-06 22:43 -26.84358 -48.79093 6026 ft 281 kts 236°
2026-05-06 22:43 -26.85455 -48.80898 5695 ft 280 kts 236°
2026-05-06 22:43 -26.86549 -48.82698 5368 ft 279 kts 236°
2026-05-06 22:43 -26.87646 -48.84481 5046 ft 277 kts 233°
2026-05-06 22:44 -26.89136 -48.85779 4719 ft 273 kts 201°
2026-05-06 22:44 -26.91002 -48.85993 4380 ft 271 kts 168°
2026-05-06 22:44 -26.92665 -48.85075 4068 ft 268 kts 139°
2026-05-06 22:44 -26.94071 -48.83772 3739 ft 259 kts 142°
2026-05-06 22:45 -26.95500 -48.82660 3389 ft 248 kts 143°
2026-05-06 22:45 -26.96554 -48.81223 3060 ft 235 kts 107°
2026-05-06 22:45 -26.96577 -48.79483 2754 ft 220 kts 68°
2026-05-06 22:45 -26.95820 -48.78060 2484 ft 208 kts 54°
2026-05-06 22:46 -26.95020 -48.76756 2251 ft 196 kts 55°
2026-05-06 22:46 -26.94281 -48.75534 2013 ft 183 kts 55°
2026-05-06 22:46 -26.93586 -48.74390 1820 ft 171 kts 55°
2026-05-06 22:46 -26.92938 -48.73322 1634 ft 160 kts 55°
2026-05-06 22:47 -26.92339 -48.72328 1431 ft 148 kts 55°
2026-05-06 22:47 -26.91793 -48.71424 1238 ft 138 kts 54°
2026-05-06 22:47 -26.91261 -48.70548 1057 ft 134 kts 54°
2026-05-06 22:47 -26.90738 -48.69688 880 ft 133 kts 54°
2026-05-06 22:48 -26.90220 -48.68835 705 ft 132 kts 55°
2026-05-06 22:48 -26.89704 -48.67986 531 ft 132 kts 54°
2026-05-06 22:48 -26.89189 -48.67139 361 ft 131 kts 55°
2026-05-06 22:48 -26.88672 -48.66294 200 ft 131 kts 54°
2026-05-06 22:49 -26.88162 -48.65460 45 ft 123 kts 54°
2026-05-06 22:49 -26.87782 -48.64831 29 ft 61 kts 56°
2026-05-06 22:49 -26.87616 -48.64562 31 ft 40 kts 55°
2026-05-06 22:49 -26.87526 -48.64388 31 ft 10 kts 37°
2026-05-06 22:50 -26.87522 -48.64404 31 ft 4 kts 243°
2026-05-06 22:50 -26.87556 -48.64459 31 ft 13 kts 240°
2026-05-06 22:50 -26.87628 -48.64581 29 ft 24 kts 236°
2026-05-06 22:50 -26.87746 -48.64773 32 ft 35 kts 236°
2026-05-06 22:51 -26.87839 -48.64893 30 ft 9 kts 162°
2026-05-06 22:51 -26.87901 -48.64853 29 ft 11 kts 176°
2026-05-06 22:51 -26.87947 -48.64912 29 ft 11 kts 236°
2026-05-06 22:51 -26.87984 -48.64924 29 ft 6 kts 147°
2026-05-06 22:52 -26.88004 -48.64908 29 ft 0 kts 146°